M I D A S
Marine Information and Data Acquisition System
Tripno 681 of the Zeeleeuw from 2004-04-01 06:13:06 to 2004-04-01 13:39:56
Back to CruiseResearch ActivitiesStationsMapUnderway DataData graphs

EquipmentUnitsComments
TimeDGPSUTC
LatitudeDGPSDM.mWGS84
LongitudeDGPSDM.mWGS84
SpeedMeteo Stationm/sRelative wind speed
DirectionMeteo StationdegRelative wind direction
TemperatureMeteo Stationdeg CelciusAir temperature
PressureMeteo StationPaAtmospheric pressure
HumidityMeteo Station%Relative humidity
Missing or incorrect values are displayed as -999
Metereological data collected by the RV Zeeleeuw from 2004-04-01 06:13:06 to 2004-04-01 13:39:56
Time Latitude Longitude Speed Direction Temperature Pressure Humidity
2004-04-01 06:14 51°13.597 2°56.091 3.6 21 10.4 100830 77
2004-04-01 06:15 51°13.617 2°56.015 1.4 49 10.4 100840 78
2004-04-01 06:16 51°13.65 2°55.91 1.4 48 10.4 100840 78
2004-04-01 06:17 51°13.674 2°55.78 2.2 103 10.4 100840 78
2004-04-01 06:18 51°13.691 2°55.765 3.1 76 10.4 100850 78
2004-04-01 06:19 51°13.685 2°55.761 3.7 139 10.4 100850 78
2004-04-01 06:20 51°13.732 2°55.731 1.2 183 10.4 100850 78
2004-04-01 06:21 51°13.831 2°55.638 0.4 118 10.4 100840 78
2004-04-01 06:22 51°13.948 2°55.542 0.8 187 10.4 100840 78
2004-04-01 06:23 51°14.071 2°55.455 2.6 108 10.4 100850 78
2004-04-01 06:24 51°14.221 2°55.327 1.4 62 10.4 100850 78
2004-04-01 06:25 51°14.351 2°55.106 1.4 227 10.4 100850 78
2004-04-01 06:26 51°14.479 2°54.822 1.3 358 10.4 100840 78
2004-04-01 06:27 51°14.639 2°54.559 1 15 10.4 100840 78
2004-04-01 06:28 51°14.799 2°54.293 0.6 305 10.4 100840 78
2004-04-01 06:29 51°14.956 2°54.03   317 10.4 100840 78
2004-04-01 06:30 51°15.12 2°53.776 1.6 70 10.4 100840 78
2004-04-01 06:31 51°15.318 2°53.586 1.6 73 10.4 100840 78
2004-04-01 06:32 51°15.523 2°53.444 3.3 79 10.3 100840 78
2004-04-01 06:33 51°15.736 2°53.312 2.6 97 10.2 100840 78
2004-04-01 06:34 51°15.947 2°53.177 2.1 72 10.2 100840 78
2004-04-01 06:35 51°16.161 2°53.05 3.6 87 10.2 100840 79
2004-04-01 06:36 51°16.378 2°52.946 2.8 90 10.1 100840 79
2004-04-01 06:37 51°16.594 2°52.842 3.2 77 10 100840 79
2004-04-01 06:38 51°16.807 2°52.736 2.9 75 10 100840 79
2004-04-01 06:39 51°17.019 2°52.635 4.1 81 9.9 100840 80
2004-04-01 06:40 51°17.236 2°52.553 3.9 78 9.9 100840 80
2004-04-01 06:41 51°17.453 2°52.469 3.5 78 9.9 100840 80
2004-04-01 06:42 51°17.674 2°52.427 4.7 76 9.8 100840 80
2004-04-01 06:43 51°17.896 2°52.439 6.1 74 9.8 100840 80
2004-04-01 06:44 51°18.115 2°52.496 7.3 70 9.8 100830 80
2004-04-01 06:45 51°18.321 2°52.629 9.4 63 9.8 100830 80
2004-04-01 06:46 51°18.471 2°52.884 10.9 52 9.8 100820 81
2004-04-01 06:47 51°18.596 2°53.184 11.2 51 9.7 100810 81
2004-04-01 06:48 51°18.706 2°53.488 12.2 45 9.8 100820 81
2004-04-01 06:49 51°18.795 2°53.818 11.2 44 9.8 100820 81
2004-04-01 06:50 51°18.887 2°54.147 11.4 45 9.8 100820 81
2004-04-01 06:51 51°18.981 2°54.475 11.5 44 9.8 100820 81
2004-04-01 06:52 51°19.077 2°54.801 11.3 49 9.9 100820 81
2004-04-01 06:53 51°19.175 2°55.131 11.4 49 9.9 100810 81
2004-04-01 06:54 51°19.27 2°55.451 11.6 44 10 100820 81
2004-04-01 06:55 51°19.366 2°55.778 11.2 46 10 100820 81
2004-04-01 06:56 51°19.465 2°56.11 11.2 44 10.1 100820 81
2004-04-01 06:57 51°19.56 2°56.431 11.4 44 10.1 100820 81
2004-04-01 06:58 51°19.658 2°56.757 10.9 46 10.2 100830 81
2004-04-01 06:59 51°19.754 2°57.084 10.7 46 10.2 100830 81
2004-04-01 07:00 51°19.851 2°57.417 11.2 42 10.2 100830 81
2004-04-01 07:01 51°19.941 2°57.744 11.4 43 10.2 100830 81
2004-04-01 07:02 51°20.023 2°58.079 10.8 41 10.2 100840 81
2004-04-01 07:03 51°20.106 2°58.414 11.2 38 10.2 100840 81
2004-04-01 07:04 51°20.19 2°58.746 10.9 39 10.2 100840 81
2004-04-01 07:05 51°20.263 2°59.086 11 38 10.2 100840 81
2004-04-01 07:06 51°20.337 2°59.428 10.8 36 10.1 100840 81
2004-04-01 07:07 51°20.413 2°59.77 11.3 37 10.2 100840 81
2004-04-01 07:08 51°20.49 3°0.116 11.9 40 10.2 100840 81
2004-04-01 07:09 51°20.564 3°0.452 11.2 37 10.3 100850 81
2004-04-01 07:10 51°20.633 3°0.795 11.5 35 10.2 100850 81
2004-04-01 07:11 51°20.689 3°1.152 12.4 35 10.3 100850 81
2004-04-01 07:12 51°20.744 3°1.498 11.4 33 10.3 100850 81
2004-04-01 07:13 51°20.804 3°1.85 12.2 35 10.3 100850 81
2004-04-01 07:14 51°20.86 3°2.202 12.3 30 10.3 100850 81
2004-04-01 07:15 51°20.872 3°2.565 11.7 29 10.3 100850 81
2004-04-01 07:16 51°20.885 3°2.928 12.9 32 10.3 100850 81
2004-04-01 07:17 51°20.898 3°3.285 11.7 34 10.4 100850 81
2004-04-01 07:18 51°20.948 3°3.501 8.8 63 10.4 100860 80
2004-04-01 07:19 51°20.993 3°3.631 7.2 68 10.5 100860 80
2004-04-01 07:20 51°21.014 3°3.722 8.7 64 10.5 100870 80
2004-04-01 07:21 51°21.027 3°3.79 7.9 61 10.6 100870 80
2004-04-01 07:22 51°21.038 3°3.843 8.2 61 10.6 100870 79
2004-04-01 07:23 51°21.06 3°3.952 7.9 69 10.7 100870 79
2004-04-01 07:24 51°21.095 3°4.061 6.3 76 10.7 100880 79
2004-04-01 07:25 51°21.13 3°4.152 6.2 74 10.7 100880 79
2004-04-01 07:26 51°21.159 3°4.236 6 78 10.7 100880 79
2004-04-01 07:27 51°21.187 3°4.315 5.8 69 10.7 100880 79
2004-04-01 07:28 51°21.212 3°4.392 7.2 75 10.7 100880 79
2004-04-01 07:29 51°21.235 3°4.471 6.9 72 10.7 100880 79
2004-04-01 07:30 51°21.255 3°4.551 7.5 68 10.7 100880 79
2004-04-01 07:31 51°21.275 3°4.631 6.8 67 10.7 100890 79
2004-04-01 07:32 51°21.293 3°4.713 7.1 68 10.7 100880 79
2004-04-01 07:33 51°21.309 3°4.795 7.7 61 10.6 100880 79
2004-04-01 07:34 51°21.322 3°4.88 7.8 63 10.7 100880 79
2004-04-01 07:35 51°21.334 3°4.963 7.7 61 10.7 100880 79
2004-04-01 07:36 51°21.345 3°5.051 8.3 64 10.7 100880 79
2004-04-01 07:37 51°21.359 3°5.135 6.7 69 10.7 100880 79
2004-04-01 07:38 51°21.377 3°5.221 7.2 67 10.7 100890 79
2004-04-01 07:39 51°21.401 3°5.307 7.4 75 10.6 100880 79
2004-04-01 07:40 51°21.429 3°5.39 7.9 82 10.6 100880 80
2004-04-01 07:41 51°21.454 3°5.471 8.2 70 10.7 100890 80
2004-04-01 07:42 51°21.478 3°5.555 7.1 67 10.7 100880 80
2004-04-01 07:43 51°21.499 3°5.642 7.8 62 10.7 100880 80
2004-04-01 07:44 51°21.516 3°5.731 7.5 60 10.7 100880 80
2004-04-01 07:45 51°21.53 3°5.819 8 59 10.7 100890 80
2004-04-01 07:46 51°21.548 3°5.906 7 78 10.6 100890 80
2004-04-01 07:47 51°21.578 3°5.988 7 92 10.6 100880 80
2004-04-01 07:48 51°21.615 3°6.059 6.4 98 10.5 100890 80
2004-04-01 07:49 51°21.652 3°6.137 6.6 81 10.5 100890 81
2004-04-01 07:50 51°21.684 3°6.22 5.8 75 10.4 100890 81
2004-04-01 07:51 51°21.709 3°6.31 6.2 69 10.4 100890 81
2004-04-01 07:52 51°21.73 3°6.399 7.6 62 10.4 100890 82
2004-04-01 07:53 51°21.752 3°6.489 6.6 74 10.4 100900 82
2004-04-01 07:54 51°21.781 3°6.576 6.3 78 10.4 100890 82
2004-04-01 07:55 51°21.81 3°6.661 5.9 77 10.3 100900 82
2004-04-01 07:56 51°21.835 3°6.747 6.3 72 10.4 100890 82
2004-04-01 07:57 51°21.86 3°6.835 7.7 66 10.4 100890 82
2004-04-01 07:58 51°21.891 3°6.953 7.2 65 10.4 100890 82
2004-04-01 07:59 51°21.914 3°7.049 7.9 62 10.4 100890 82
2004-04-01 08:00 51°21.93 3°7.124 8.2 66 10.4 100900 83
2004-04-01 08:01 51°21.968 3°7.199 6.4 126 10.4 100890 83
2004-04-01 08:02 51°22.029 3°7.184 4.9 222 10.4 100900 83
2004-04-01 08:03 51°22.02 3°7.113 7.4 297 10.5 100890 83
2004-04-01 08:04 51°21.966 3°7.054 8.1 304 10.5 100880 83
2004-04-01 08:05 51°21.92 3°6.981 7.8 284 10.5 100880 82
2004-04-01 08:06 51°21.887 3°6.896 6.9 286 10.5 100890 82
2004-04-01 08:07 51°21.853 3°6.817 7.2 288 10.5 100890 82
2004-04-01 08:08 51°21.816 3°6.745 7.5 291 10.4 100890 82
2004-04-01 08:09 51°21.78 3°6.672 7.3 286 10.4 100880 82
2004-04-01 08:10 51°21.75 3°6.603 7.5 284 10.4 100880 83
2004-04-01 08:11 51°21.723 3°6.535 6.4 279 10.4 100890 83
2004-04-01 08:12 51°21.696 3°6.47 7.5 285 10.4 100890 83
2004-04-01 08:13 51°21.665 3°6.407 7.5 288 10.5 100880 83
2004-04-01 08:14 51°21.645 3°6.336 7.2 275 10.5 100890 83
2004-04-01 08:15 51°21.625 3°6.263 7.8 279 10.6 100890 83
2004-04-01 08:16 51°21.601 3°6.197 8.7 286 10.6 100880 83
2004-04-01 08:17 51°21.573 3°6.132 8.1 289 10.7 100880 83
2004-04-01 08:18 51°21.543 3°6.072 8.1 282 10.7 100870 82
2004-04-01 08:19 51°21.518 3°6.005 8.5 283 10.8 100870 82
2004-04-01 08:20 51°21.494 3°5.94 8.8 282 10.9 100880 82
2004-04-01 08:21 51°21.47 3°5.879 8.1 284 10.9 100880 81
2004-04-01 08:22 51°21.445 3°5.818 7.2 288 10.9 100880 81
2004-04-01 08:23 51°21.422 3°5.782 6.8 294 11 100880 81
2004-04-01 08:24 51°21.404 3°5.765 7.4 296 11 100880 81
2004-04-01 08:25 51°21.39 3°5.758 7.4 296 11 100880 80
2004-04-01 08:26 51°21.382 3°5.757 7.1 291 11 100880 80
2004-04-01 08:27 51°21.374 3°5.751 6.9 295 11 100880 80
2004-04-01 08:28 51°21.384 3°5.656 2.3 199 10.9 100890 80
2004-04-01 08:29 51°21.531 3°5.659 5.3 97 10.9 100890 80
2004-04-01 08:30 51°21.764 3°5.706 6.4 80 10.9 100890 81
2004-04-01 08:31 51°22 3°5.789 5.7 79 10.9 100890 80
2004-04-01 08:32 51°22.24 3°5.876 5.8 72 10.8 100890 80
2004-04-01 08:33 51°22.471 3°5.961 5.9 66 10.7 100890 81
2004-04-01 08:34 51°22.711 3°6.049 5.4 75 10.6 100890 81
2004-04-01 08:35 51°22.946 3°6.138 5.9 69 10.5 100890 82
2004-04-01 08:36 51°23.181 3°6.225 6 68 10.5 100890 82
2004-04-01 08:37 51°23.41 3°6.319 6 71 10.4 100890 82
2004-04-01 08:38 51°23.64 3°6.429 5.8 72 10.4 100890 83
2004-04-01 08:39 51°23.869 3°6.539 5.5 71 10.4 100890 83
2004-04-01 08:40 51°24.096 3°6.649 6.5 83 10.3 100890 83
2004-04-01 08:41 51°24.324 3°6.74 5.3 75 10.4 100890 83
2004-04-01 08:42 51°24.554 3°6.811 4.5 72 10.4 100890 83
2004-04-01 08:43 51°24.786 3°6.856 3.9 79 10.5 100890 83
2004-04-01 08:44 51°25.019 3°6.9 4.5 82 10.5 100890 83
2004-04-01 08:45 51°25.245 3°6.941 3.6 75 10.5 100890 83
2004-04-01 08:46 51°25.466 3°6.981 4.5 85 10.5 100890 83
2004-04-01 08:47 51°25.572 3°7.052 4.1 129 10.5 100890 83
2004-04-01 08:48 51°25.618 3°7.085 4.8 135 10.5 100890 83
2004-04-01 08:49 51°25.666 3°7.119 5.5 128 10.5 100890 83
2004-04-01 08:50 51°25.73 3°7.158 4.8 119 10.5 100890 82
2004-04-01 08:51 51°25.788 3°7.218 5.3 108 10.5 100890 82
2004-04-01 08:52 51°25.83 3°7.293 6 88 10.5 100890 82
2004-04-01 08:53 51°25.863 3°7.375 6.4 84 10.5 100880 82
2004-04-01 08:54 51°25.891 3°7.458 6.1 87 10.5 100880 82
2004-04-01 08:55 51°25.919 3°7.544 6.4 83 10.5 100890 82
2004-04-01 08:56 51°25.944 3°7.63 7.3 84 10.5 100880 82
2004-04-01 08:57 51°25.971 3°7.718 7.2 83 10.5 100890 82
2004-04-01 08:58 51°25.998 3°7.802 6.8 87 10.5 100890 82
2004-04-01 08:59 51°26.029 3°7.883 6.4 92 10.4 100890 82
2004-04-01 09:00 51°26.063 3°7.962 5.9 97 10.5 100890 82
2004-04-01 09:01 51°26.094 3°8.027 5.4 102 10.5 100890 82
2004-04-01 09:02 51°26.127 3°8.093 5.5 105 10.5 100890 82
2004-04-01 09:03 51°26.16 3°8.156 5 102 10.4 100890 82
2004-04-01 09:04 51°26.198 3°8.222 4.7 116 10.4 100890 82
2004-04-01 09:05 51°26.233 3°8.274 4.9 104 10.4 100890 83
2004-04-01 09:06 51°26.27 3°8.328 4.7 109 10.3 100890 83
2004-04-01 09:07 51°26.309 3°8.377 4.3 112 10.3 100890 83
2004-04-01 09:08 51°26.349 3°8.424 4.2 110 10.3 100890 83
2004-04-01 09:09 51°26.389 3°8.469 4.2 110 10.2 100890 83
2004-04-01 09:10 51°26.428 3°8.517 4.5 99 10.2 100890 83
2004-04-01 09:11 51°26.466 3°8.571 4.7 104 10.2 100880 83
2004-04-01 09:12 51°26.502 3°8.629 4.9 96 10.2 100880 84
2004-04-01 09:13 51°26.536 3°8.69 5.3 88 10.2 100880 84
2004-04-01 09:14 51°26.568 3°8.757 5.8 86 10.1 100880 84
2004-04-01 09:15 51°26.597 3°8.823 5.5 82 10.2 100880 84
2004-04-01 09:16 51°26.626 3°8.893 4.5 77 10.2 100870 84
2004-04-01 09:17 51°26.653 3°8.965 4.9 78 10.2 100880 84
2004-04-01 09:18 51°26.677 3°9.038 5.2 78 10.2 100880 84
2004-04-01 09:19 51°26.699 3°9.111 5.5 70 10.3 100880 84
2004-04-01 09:20 51°26.719 3°9.186 5.1 69 10.3 100880 84
2004-04-01 09:21 51°26.736 3°9.262 5.7 66 10.4 100870 84
2004-04-01 09:22 51°26.75 3°9.339 5.5 58 10.4 100880 84
2004-04-01 09:23 51°26.762 3°9.418 6.2 54 10.4 100880 84
2004-04-01 09:24 51°26.771 3°9.488 6 56 10.4 100880 84
2004-04-01 09:25 51°26.779 3°9.548 6 57 10.4 100880 84
2004-04-01 09:26 51°26.787 3°9.624 6.4 51 10.5 100870 84
2004-04-01 09:27 51°26.799 3°9.733 6.5 53 10.6 100870 83
2004-04-01 09:28 51°26.813 3°9.845 6.8 54 10.6 100870 83
2004-04-01 09:29 51°26.824 3°9.946 6.7 54 10.6 100870 83
2004-04-01 09:30 51°26.834 3°10.041 6.2 54 10.7 100870 83
2004-04-01 09:31 51°26.848 3°10.135 5.7 58 10.6 100880 82
2004-04-01 09:32 51°26.868 3°10.227 5.2 61 10.5 100880 82
2004-04-01 09:33 51°26.895 3°10.321 6.1 63 10.3 100870 82
2004-04-01 09:34 51°26.92 3°10.418 6 64 10.3 100870 83
2004-04-01 09:35 51°26.944 3°10.512 6.2 65 10.3 100880 83
2004-04-01 09:36 51°26.969 3°10.608 6.5 61 10.3 100870 83
2004-04-01 09:37 51°26.994 3°10.706 6.6 62 10.3 100870 83
2004-04-01 09:38 51°27.021 3°10.8 6.3 66 10.4 100880 83
2004-04-01 09:39 51°27.051 3°10.891 6.1 68 10.4 100880 83
2004-04-01 09:40 51°27.083 3°10.984 5.9 69 10.5 100870 83
2004-04-01 09:41 51°27.114 3°11.077 5.9 68 10.6 100870 83
2004-04-01 09:42 51°27.145 3°11.17 6.2 68 10.6 100880 83
2004-04-01 09:43 51°27.176 3°11.262 6.2 64 10.6 100870 82
2004-04-01 09:44 51°27.206 3°11.355 5.4 55 10.5 100870 82
2004-04-01 09:45 51°27.235 3°11.444 5 50 10.3 100870 82
2004-04-01 09:46 51°27.266 3°11.535 5.7 62 10.1 100870 83
2004-04-01 09:47 51°27.297 3°11.626 5.8 62 10.1 100870 83
2004-04-01 09:48 51°27.327 3°11.718 5.8 62 10.2 100870 84
2004-04-01 09:49 51°27.359 3°11.808 5.8 66 10.3 100870 84
2004-04-01 09:50 51°27.395 3°11.896 6.1 62 10.3 100870 83
2004-04-01 09:51 51°27.43 3°11.981 5.9 66 10.3 100870 83
2004-04-01 09:52 51°27.464 3°12.069 6 63 10.3 100870 83
2004-04-01 09:53 51°27.499 3°12.159 5.5 67 10.3 100870 83
2004-04-01 09:54 51°27.533 3°12.246 5.8 63 10.3 100870 83
2004-04-01 09:55 51°27.567 3°12.333 5.9 61 10.3 100870 83
2004-04-01 09:56 51°27.6 3°12.418 5.6 64 10.3 100870 84
2004-04-01 09:57 51°27.631 3°12.508 5.9 61 10.3 100860 84
2004-04-01 09:58 51°27.65 3°12.601 6 45 10.4 100870 84
2004-04-01 09:59 51°27.655 3°12.699 5.9 20 10.5 100860 83
2004-04-01 10:00 51°27.654 3°12.796 6.2 21 10.6 100850 83
2004-04-01 10:01 51°27.651 3°12.89 6.3 22 10.7 100860 83
2004-04-01 10:02 51°27.649 3°12.966 5.2 25 10.6 100850 82
2004-04-01 10:03 51°27.65 3°13.029 5.8 34 10.6 100860 82
2004-04-01 10:04 51°27.65 3°13.095 6.1 23 10.6 100860 83
2004-04-01 10:05 51°27.646 3°13.148 5.9 8 10.7 100850 82
2004-04-01 10:06 51°27.636 3°13.198 6.8 355 10.7 100850 82
2004-04-01 10:07 51°27.555 3°13.21 8.2 318 10.9 100850 82
2004-04-01 10:08 51°27.416 3°12.998 7.5 323 10.9 100840 82
2004-04-01 10:09 51°27.273 3°12.741 7.9 325 10.9 100840 81
2004-04-01 10:10 51°27.129 3°12.491 7.4 327 11 100850 81
2004-04-01 10:11 51°26.979 3°12.234 7.6 325 10.9 100850 81
2004-04-01 10:12 51°26.834 3°11.985 6.9 328 10.8 100850 81
2004-04-01 10:13 51°26.667 3°11.757 7.9 328 10.8 100840 80
2004-04-01 10:14 51°26.499 3°11.546 8 329 10.7 100840 81
2004-04-01 10:15 51°26.327 3°11.327 7.5 332 10.8 100840 81
2004-04-01 10:16 51°26.142 3°11.161 8.1 336 10.7 100840 81
2004-04-01 10:17 51°25.932 3°11.051 10.9 341 10.7 100840 81
2004-04-01 10:18 51°25.718 3°11.031 11 348 10.8 100830 81
2004-04-01 10:19 51°25.505 3°11.145 12.6 359 11 100820 82
2004-04-01 10:20 51°25.336 3°11.381 11.7 4 11.3 100830 80
2004-04-01 10:21 51°25.199 3°11.683 12 12 11.5 100820 79
2004-04-01 10:22 51°25.122 3°12.036 11.5 12 11.5 100820 79
2004-04-01 10:23 51°25.075 3°12.407 11.3 17 11.5 100820 78
2004-04-01 10:24 51°25.024 3°12.78 11.1 19 11.6 100820 78
2004-04-01 10:25 51°25.05 3°13.155 9.6 19 11.7 100820 77
2004-04-01 10:26 51°25.065 3°13.382 5.6 28 11.7 100830 77
2004-04-01 10:27 51°25.078 3°13.475 4.9 57 11.7 100830 77
2004-04-01 10:28 51°25.103 3°13.555 4.9 57 11.7 100830 76
2004-04-01 10:29 51°25.129 3°13.653 5.6 39 11.7 100830 77
2004-04-01 10:30 51°25.14 3°13.75 5.4 32 11.8 100820 76
2004-04-01 10:31 51°25.143 3°13.847 5 30 11.8 100830 76
2004-04-01 10:32 51°25.139 3°13.937 6 22 11.8 100830 76
2004-04-01 10:33 51°25.133 3°14.027 6 28 11.8 100820 76
2004-04-01 10:34 51°25.13 3°14.116 5.5 29 11.9 100820 76
2004-04-01 10:35 51°25.13 3°14.206 5.3 29 11.9 100820 75
2004-04-01 10:36 51°25.131 3°14.296 4.8 22 11.9 100820 75
2004-04-01 10:37 51°25.134 3°14.386 5.8 36 11.8 100820 75
2004-04-01 10:38 51°25.139 3°14.48 6.2 34 11.7 100820 76
2004-04-01 10:39 51°25.141 3°14.571 6.6 31 11.9 100820 76
2004-04-01 10:40 51°25.139 3°14.659 6.6 21 12 100820 75
2004-04-01 10:41 51°25.131 3°14.743 5.9 14 12.2 100820 74
2004-04-01 10:42 51°25.121 3°14.825 6.2 14 12.3 100820 74
2004-04-01 10:43 51°25.114 3°14.909 6.1 23 12.5 100820 73
2004-04-01 10:44 51°25.116 3°14.995 6.4 32 12.5 100810 72
2004-04-01 10:45 51°25.126 3°15.082 6.3 40 12.5 100810 72
2004-04-01 10:46 51°25.136 3°15.168 5.9 37 12.5 100810 72
2004-04-01 10:47 51°25.144 3°15.257 6.2 32 12.7 100810 72
2004-04-01 10:48 51°25.148 3°15.345 6.2 33 12.7 100810 71
2004-04-01 10:49 51°25.147 3°15.431 5.4 26 12.7 100810 71
2004-04-01 10:50 51°25.14 3°15.519 5.1 16 12.7 100810 71
2004-04-01 10:51 51°25.136 3°15.606 5.7 22 12.6 100810 71
2004-04-01 10:52 51°25.134 3°15.695 5.8 29 12.5 100800 72
2004-04-01 10:53 51°25.135 3°15.782 5.6 31 12.5 100810 72
2004-04-01 10:54 51°25.138 3°15.87 5.8 37 12.5 100810 72
2004-04-01 10:55 51°25.143 3°15.959 5.2 39 12.6 100800 71
2004-04-01 10:56 51°25.152 3°16.034 5.5 45 12.7 100800 71
2004-04-01 10:57 51°25.163 3°16.1 5.3 47 12.9 100810 70
2004-04-01 10:58 51°25.177 3°16.162 7 52 12.8 100810 70
2004-04-01 10:59 51°25.146 3°16.256 7.9 328 12.9 100800 70
2004-04-01 11:00 51°25.078 3°16.207 6.1 296 13.1 100790 70
2004-04-01 11:01 51°25.046 3°16.124 6.2 267 13.2 100800 69
2004-04-01 11:02 51°25.039 3°16.048 4.2 258 13.2 100800 68
2004-04-01 11:03 51°25.035 3°15.974 2.2 257 13.3 100800 68
2004-04-01 11:04 51°25.038 3°15.891 3.3 248 13.4 100810 68
2004-04-01 11:05 51°25.044 3°15.799 3.4 257 13.5 100800 67
2004-04-01 11:06 51°25.043 3°15.708 4.6 262 13.6 100800 67
2004-04-01 11:07 51°25.034 3°15.618 4.7 263 13.6 100800 67
2004-04-01 11:08 51°25.032 3°15.527 4 242 13.7 100800 67
2004-04-01 11:09 51°25.048 3°15.438 2.9 256 13.9 100800 66
2004-04-01 11:10 51°25.071 3°15.35 2.6 246 13.7 100800 65
2004-04-01 11:11 51°25.092 3°15.268 2.9 234 13.6 100800 67
2004-04-01 11:12 51°25.108 3°15.189 2.5 254 13.8 100800 67
2004-04-01 11:13 51°25.11 3°15.108 4.7 262 13.7 100800 66
2004-04-01 11:14 51°25.102 3°15.029 4.7 277 13.7 100790 66
2004-04-01 11:15 51°25.09 3°14.95 4.6 269 13.6 100790 66
2004-04-01 11:16 51°25.079 3°14.868 4.3 272 13.5 100790 67
2004-04-01 11:17 51°25.067 3°14.786 4.2 271 13.4 100790 67
2004-04-01 11:18 51°25.055 3°14.7 3.8 265 13.5 100790 67
2004-04-01 11:19 51°25.047 3°14.611 2.9 249 13.5 100790 67
2004-04-01 11:20 51°25.044 3°14.521 2.1 254 13.5 100790 67
2004-04-01 11:21 51°25.047 3°14.425 2.2 254 13.6 100790 66
2004-04-01 11:22 51°25.06 3°14.331 2.5 234 13.5 100790 66
2004-04-01 11:23 51°25.083 3°14.243 3.2 214 13.5 100780 67
2004-04-01 11:24 51°25.119 3°14.156 1.9 191 13.6 100790 66
2004-04-01 11:25 51°25.16 3°14.091 1.7 218 13.8 100780 67
2004-04-01 11:26 51°25.198 3°14.045 2.6 179 14 100780 65
2004-04-01 11:27 51°25.234 3°14.012 2.3 184 14 100790 65
2004-04-01 11:28 51°25.265 3°13.986 2 197 14 100790 65
2004-04-01 11:29 51°25.29 3°13.958 3.6 216 14.1 100780 65
2004-04-01 11:30 51°25.308 3°13.93 4 216 14 100780 64
2004-04-01 11:31 51°25.318 3°13.894 4.1 266 13.9 100780 65
2004-04-01 11:32 51°25.273 3°13.842 7.7 331 13.7 100770 65
2004-04-01 11:33 51°25.108 3°13.847 11.2 345 13.8 100750 65
2004-04-01 11:34 51°24.901 3°13.954 11.9 355 13.8 100750 65
2004-04-01 11:35 51°24.695 3°14.101 12.8 358 13.7 100750 66
2004-04-01 11:36 51°24.492 3°14.252 12.7 358 13.7 100760 66
2004-04-01 11:37 51°24.302 3°14.46 13.4 1 13.8 100750 66
2004-04-01 11:38 51°24.115 3°14.685 12.7 360 14.1 100750 64
2004-04-01 11:39 51°24.017 3°14.986 12.4 30 14.3 100730 64
2004-04-01 11:40 51°24.009 3°15.271 10.3 36 14.7 100750 62
2004-04-01 11:41 51°24.021 3°15.403 8.8 84 14.4 100770 62
2004-04-01 11:42 51°24.059 3°15.485 8.3 94 14.1 100780 64
2004-04-01 11:43 51°24.102 3°15.585 7.5 82 14 100780 64
2004-04-01 11:44 51°24.128 3°15.686 7.3 57 14.1 100780 64
2004-04-01 11:45 51°24.135 3°15.786 9.2 45 14.2 100770 63
2004-04-01 11:46 51°24.128 3°15.876 7.8 35 14.1 100760 63
2004-04-01 11:47 51°24.112 3°15.963 8.8 33 14.1 100760 63
2004-04-01 11:48 51°24.096 3°16.054 9.8 29 14.3 100760 62
2004-04-01 11:49 51°24.066 3°16.138 10.8 25 14.7 100750 60
2004-04-01 11:50 51°24.033 3°16.218 10.3 27 14.8 100740 59
2004-04-01 11:51 51°24.002 3°16.301 9.8 37 14.9 100740 59
2004-04-01 11:52 51°23.976 3°16.395 8.8 45 15.2 100750 67
2004-04-01 11:53 51°23.953 3°16.494 8.7 27 15.3 100750 58
2004-04-01 11:54 51°23.926 3°16.585 8.3 24 15.5 100740 56
2004-04-01 11:55 51°23.889 3°16.67 7.9 9 15.6 100750 57
2004-04-01 11:56 51°23.85 3°16.746 8.2 23 15.5 100750 57
2004-04-01 11:57 51°23.822 3°16.836 7.5 29 15.5 100740 57
2004-04-01 11:58 51°23.794 3°16.928 8.5 22 15.2 100750 58
2004-04-01 11:59 51°23.758 3°17.009 9.1 12 15.1 100750 58
2004-04-01 12:00 51°23.726 3°17.095 8 26 15.1 100750 58
2004-04-01 12:01 51°23.701 3°17.188 9.1 30 14.9 100750 59
2004-04-01 12:02 51°23.675 3°17.277 9.9 20 14.7 100750 60
2004-04-01 12:03 51°23.641 3°17.357 13.8 20 14.9 100740 58
2004-04-01 12:04 51°23.604 3°17.431 9.4 22 15.5 100730 55
2004-04-01 12:05 51°23.563 3°17.495 8.1 19 15.9 100740 54
2004-04-01 12:06 51°23.513 3°17.554 9.3 10 16.1 100750 53
2004-04-01 12:07 51°23.462 3°17.61 9.3 358 16.1 100750 54
2004-04-01 12:08 51°23.416 3°17.679 9.7 19 15.9 100750 55
2004-04-01 12:09 51°23.377 3°17.756 9.8 26 15.9 100740 55
2004-04-01 12:10 51°23.337 3°17.832 7.5 11 15.9 100750 55
2004-04-01 12:11 51°23.285 3°17.885 7.2 350 16.2 100750 53
2004-04-01 12:12 51°23.223 3°17.896 8.4 314 16.1 100750 54
2004-04-01 12:13 51°23.183 3°17.867 7.6 287 15.8 100740 55
2004-04-01 12:14 51°23.16 3°17.828 7.3 287 15.8 100740 55
2004-04-01 12:15 51°23.146 3°17.787 7.2 280 15.4 100750 56
2004-04-01 12:16 51°23.145 3°17.618 6.6 268 15.4 100750 56
2004-04-01 12:17 51°23.177 3°17.411 5.4 258 15.5 100750 55
2004-04-01 12:18 51°23.172 3°17.309 9.5 270 15.5 100750 55
2004-04-01 12:19 51°23.157 3°17.248 6.7 285 15.9 100740 53
2004-04-01 12:20 51°23.143 3°17.207 7.1 295 16 100740 54
2004-04-01 12:21 51°23.133 3°17.173 7.1 291 15.9 100750 54
2004-04-01 12:22 51°23.105 3°17.002 6.6 307 16 100740 54
2004-04-01 12:23 51°23.087 3°16.66 6.6 316 16.1 100740 54
2004-04-01 12:24 51°23.049 3°16.304 7.6 318 16.2 100730 53
2004-04-01 12:25 51°23.01 3°15.944 9.6 305 16.1 100730 52
2004-04-01 12:26 51°22.972 3°15.582 8.2 298 16.2 100740 52
2004-04-01 12:27 51°22.933 3°15.219 8.4 294 16.1 100740 53
2004-04-01 12:28 51°22.896 3°14.861 8.3 289 16.1 100740 53
2004-04-01 12:29 51°22.854 3°14.493 7.7 307 16.1 100730 53
2004-04-01 12:30 51°22.809 3°14.134 7.7 299 15.9 100740 53
2004-04-01 12:31 51°22.763 3°13.775 8.1 296 15.9 100730 54
2004-04-01 12:32 51°22.719 3°13.423 7.3 302 15.8 100730 54
2004-04-01 12:33 51°22.676 3°13.059 6.7 311 15.9 100730 54
2004-04-01 12:34 51°22.634 3°12.707 6.5 306 15.8 100720 54
2004-04-01 12:35 51°22.592 3°12.343 8.1 313 15.8 100720 54
2004-04-01 12:36 51°22.55 3°11.992 6.8 320 15.8 100720 54
2004-04-01 12:37 51°22.478 3°11.64 9.7 308 16 100710 53
2004-04-01 12:38 51°22.496 3°11.285 4.5 313 16.3 100730 52
2004-04-01 12:39 51°22.574 3°10.931 4.5 299 16.5 100730 52
2004-04-01 12:40 51°22.654 3°10.581 5.5 301 16.5 100720 51
2004-04-01 12:41 51°22.678 3°10.209 5.6 42 16.5 100720 51
2004-04-01 12:42 51°22.658 3°9.844 6.9 315 16.5 100710 52
2004-04-01 12:43 51°22.616 3°9.487 8.7 231 16.5 100710 51
2004-04-01 12:44 51°22.53 3°9.167 12.4 310 16.5 100710 51
2004-04-01 12:45 51°22.373 3°8.903 11.1 317 16.5 100690 51
2004-04-01 12:46 51°22.214 3°8.649 11.8 328 16.4 100690 52
2004-04-01 12:47 51°22.055 3°8.394 12.8 323 16.3 100680 52
2004-04-01 12:48 51°21.896 3°8.148 12.1 316 16.4 100680 52
2004-04-01 12:49 51°21.729 3°7.895 11.2 41 16.3 100680 52
2004-04-01 12:50 51°21.566 3°7.644 11.9 321 16.2 100690 52
2004-04-01 12:51 51°21.403 3°7.392 12.3 323 16.1 100690 53
2004-04-01 12:52 51°21.237 3°7.143 11.7 328 15.9 100690 54
2004-04-01 12:53 51°21.074 3°6.893 12 328 15.8 100680 54
2004-04-01 12:54 51°20.91 3°6.645 12.8 330 15.9 100680 53
2004-04-01 12:55 51°20.747 3°6.401 12.5 331 16 100680 52
2004-04-01 12:56 51°20.584 3°6.16 12.4 327 16.1 100680 51
2004-04-01 12:57 51°20.423 3°5.915 12.5 331 16.2 100680 51
2004-04-01 12:58 51°20.262 3°5.667 11.4 328 16.4 100680 50
2004-04-01 12:59 51°20.099 3°5.42 11.5 326 16.6 100680 50
2004-04-01 13:00 51°19.96 3°5.137 10.8 323 16.5 100690 50
2004-04-01 13:01 51°19.821 3°4.858 11.9 317 16.4 100680 50
2004-04-01 13:02 51°19.685 3°4.56 10.8 317 16.4 100680 50
2004-04-01 13:03 51°19.551 3°4.267 9.7 317 16.5 100680 51
2004-04-01 13:04 51°19.42 3°3.979 11.8 318 16.5 100680 49
2004-04-01 13:05 51°19.284 3°3.681 13.1 320 16.6 100660 49
2004-04-01 13:06 51°19.151 3°3.392 13.8 311 16.7 100660 48
2004-04-01 13:07 51°19.021 3°3.107 12.8 228 16.7 100660 48
2004-04-01 13:08 51°18.884 3°2.818 14.5 323 16.8 100650 46
2004-04-01 13:09 51°18.754 3°2.532 14.1 228 16.9 100650 45
2004-04-01 13:10 51°18.623 3°2.236 12 317 16.9 100670 47
2004-04-01 13:11 51°18.491 3°1.949 11.3 311 16.8 100660 46
2004-04-01 13:12 51°18.358 3°1.661 12.6 307 16.8 100670 46
2004-04-01 13:13 51°18.224 3°1.373 11.9 304 16.8 100660 47
2004-04-01 13:14 51°18.093 3°1.086 10.8 314 16.8 100660 47
2004-04-01 13:15 51°17.962 3°0.792 12.1 321 16.7 100660 49
2004-04-01 13:16 51°17.828 3°0.496 14.6 330 16.8 100650 47
2004-04-01 13:17 51°17.694 3°0.196 14.5 323 17 100630 46
2004-04-01 13:18 51°17.562 2°59.899 14.6 311 17.1 100640 45
2004-04-01 13:19 51°17.431 2°59.602 12.3 316 17.1 100650 47
2004-04-01 13:20 51°17.299 2°59.305 12.4 40 17.1 100650 46
2004-04-01 13:21 51°17.168 2°59.008 13.8 323 17 100650 47
2004-04-01 13:22 51°17.037 2°58.71 15.1 320 17 100640 46
2004-04-01 13:23 51°16.907 2°58.415 14 226 17 100650 46
2004-04-01 13:24 51°16.771 2°58.11 11.8 227 17 100660 47
2004-04-01 13:25 51°16.639 2°57.807 12.4 315 17 100660 47
2004-04-01 13:26 51°16.507 2°57.505 11.6 315 16.9 100650 48
2004-04-01 13:27 51°16.376 2°57.204 11.2 322 16.9 100660 48
2004-04-01 13:28 51°16.244 2°56.903 12.2 327 16.8 100660 48
2004-04-01 13:29 51°16.116 2°56.608 13.6 319 16.8 100650 49
2004-04-01 13:30 51°15.982 2°56.305 11.7 320 16.9 100650 48
2004-04-01 13:31 51°15.851 2°56.006 13.4 311 17 100670 48
2004-04-01 13:32 51°15.716 2°55.719 12.9 324 17 100670 48
2004-04-01 13:33 51°15.564 2°55.449 12.3 326 17 100660 48
2004-04-01 13:34 51°15.391 2°55.201 14.3 321 17 100660 48
2004-04-01 13:35 51°15.198 2°55.02 12.9 332 17 100650 47
2004-04-01 13:36 51°14.989 2°54.913 13.5 353 17 100660 48
2004-04-01 13:37 51°14.768 2°54.871 13.3 353 17.1 100660 48
2004-04-01 13:38 51°14.549 2°54.884 13.6 11 17.3 100660 47
2004-04-01 13:39 51°14.38 2°55.034 10.7 12 17.5 100650 46